Location: Mountain_View
(35.6670°N, 81.4000°W)
Time: 22:18:30
(UTC-04:00)

Amateur Radio Satellites - All Passes

Search period start: 23 July 2014 21:48
Search period end: 24 July 2014 21:48
Location: Mountain_View, 35.6670°N, 81.4000°W

Satellite Date Start Highest point End Downlink Frequencies (MHz)
Time Altitude Azimuth
UKube-1 23 Jul 21:49:28 21:53:47 68° 75° (ENE) 21:58:09 145.840 MHz, 145.915 MHz
SO-50 23 Jul 22:08:12 22:08:51 10° 42° (NE) 22:09:30 436.795 FM
MaSat-1 23 Jul 22:11:55 22:14:20 17° 100° (E) 22:17:00 437.345 MHz
Oscar 11 23 Jul 22:41:12 22:45:28 66° 259° (W) 22:49:45 145.825 FM, Beacon 2401.500 USB
FUNcube-1 23 Jul 22:46:25 22:50:39 47° 74° (ENE) 22:54:48 145.950 - 145.970 MHz USB
HO-68 23 Jul 23:04:49 23:10:23 24° 265° (W) 23:15:58 435.675 MHz FM
RS-15 23 Jul 23:25:19 23:35:50 47° 51° (NE) 23:46:40 29.354 - 29.394 USB, Beacon 29.352 USB
Lituanica SAT-1 23 Jul 23:45:15 23:46:47 17° 132° (SE) 23:48:19 437.275 MHz beacon
SO-50 23 Jul 23:45:24 23:50:10 77° 60° (ENE) 23:55:00 436.795 FM
MaSat-1 23 Jul 23:47:48 23:51:15 31° 301° (WNW) 23:55:15 437.345 MHz
AO-40 24 Jul 00:08:17 06:00:58 45° 182° (S) 11:24:37 Beacon 2401.320
FUNcube-1 24 Jul 00:25:17 00:27:14 13° 267° (W) 00:29:09 145.950 - 145.970 MHz USB
UOSAT-12 24 Jul 00:38:59 00:42:35 21° 49° (NE) 00:46:08 437.025 FM, 437.400 FM
Lituanica SAT-1 24 Jul 01:18:12 01:19:32 15° 327° (NNW) 01:20:53 437.275 MHz beacon
ISS 24 Jul 01:19:34 01:22:36 33° 132° (SE) 01:25:39 145.800 FM
Sapphire 24 Jul 01:32:51 01:36:54 22° 106° (ESE) 01:40:57 437.095 MHz 1200 baud AX-25 AFSK
RS-15 24 Jul 01:37:46 01:48:10 49° 250° (WSW) 01:59:01 29.354 - 29.394 USB, Beacon 29.352 USB
PCSat 24 Jul 02:05:30 02:10:40 49° 111° (ESE) 02:15:53 145.825 MHz
Oscar 19 24 Jul 02:11:38 02:15:48 25° 96° (E) 02:19:58 437.125 CW, 437.150 USB
UOSAT-12 24 Jul 02:18:27 02:22:54 42° 246° (WSW) 02:27:16 437.025 FM, 437.400 FM
Oscar 16 24 Jul 02:38:22 02:43:22 48° 100° (E) 02:48:20 437.025 USB, Beacon 2401.1428
ITAMSAT 1 24 Jul 02:48:06 02:52:19 25° 96° (E) 02:56:29 435.822 SSB
ISS 24 Jul 02:56:36 02:59:21 23° 328° (NNW) 03:02:08 145.800 FM
Gurwin Techsat 1B 24 Jul 02:58:36 03:00:22 12° 91° (E) 03:02:07 435.225 FM
AO-27 24 Jul 03:05:20 03:10:09 38° 98° (E) 03:14:55 436.795 MHz FM
Uribyol 2 24 Jul 03:08:29 03:13:23 42° 99° (E) 03:18:14 436.500 FM
AO-Echo 24 Jul 03:11:55 03:16:50 45° 99° (E) 03:21:33 ?
Sapphire 24 Jul 03:14:51 03:19:58 43° 301° (WNW) 03:25:08 437.095 MHz 1200 baud AX-25 AFSK
JAS-1B 24 Jul 03:43:22 03:52:41 55° 98° (E) 04:00:40 435.800 - 435.900 CW/SSB
PCSat 24 Jul 03:50:14 03:54:20 22° 308° (NW) 03:58:28 145.825 MHz
Oscar 19 24 Jul 03:50:32 03:55:08 34° 290° (WNW) 03:59:45 437.125 CW, 437.150 USB
AO-7 24 Jul 04:10:57 04:14:32 13° 91° (E) 04:18:06 29.400 - 29.500 MHz
TMSAT-1 24 Jul 04:14:49 04:19:59 52° 100° (E) 04:25:06 436.925 FM
Oscar 16 24 Jul 04:18:53 04:22:18 18° 295° (WNW) 04:25:42 437.025 USB, Beacon 2401.1428
ITAMSAT 1 24 Jul 04:27:11 04:31:48 34° 290° (WNW) 04:36:23 435.822 SSB
Gurwin Techsat 1B 24 Jul 04:35:29 04:40:47 71° 285° (WNW) 04:46:03 435.225 FM
OPAL 24 Jul 04:38:15 04:43:13 86° 255° (WSW) 04:48:11 ?
AO-27 24 Jul 04:45:25 04:49:23 23° 293° (WNW) 04:53:21 436.795 MHz FM
Uribyol 2 24 Jul 04:48:49 04:52:31 20° 294° (WNW) 04:56:12 436.500 FM
AO-Echo 24 Jul 04:51:43 04:55:10 19° 295° (WNW) 04:58:33 ?
Uosat F 24 Jul 05:04:09 05:08:39 32° 98° (E) 05:13:06 435.120 FM
JAS-1B 24 Jul 05:34:20 05:42:34 35° 298° (WNW) 05:49:58 435.800 - 435.900 CW/SSB
TMSAT-1 24 Jul 05:56:00 05:59:26 18° 295° (WNW) 06:02:52 436.925 FM
AO-7 24 Jul 05:59:56 06:08:19 83° 107° (ESE) 06:16:37 29.400 - 29.500 MHz
KITSAT 1 24 Jul 06:04:03 06:07:39 14° 100° (E) 06:11:15 435.175 FM
Hamsat 24 Jul 06:16:37 06:18:04 12° 92° (E) 06:19:31 145.90 MHz
JAS-2 24 Jul 06:25:29 06:28:14 13° 88° (E) 06:30:52 435.800 - 435.900 CW/SSB, 435.910 FM
Uosat F 24 Jul 06:43:13 06:47:15 25° 292° (WNW) 06:51:16 435.120 FM
STRAND 1 24 Jul 06:52:37 06:57:23 40° 71° (ENE) 07:02:10 ?
Lituanica SAT-1 24 Jul 07:32:26 07:34:34 60° 41° (NE) 07:36:42 437.275 MHz beacon
Oscar 10/S400 24 Jul 07:46:33 09:03:19 26° 256° (WSW) 12:01:10 145.825 - 145.975 CW/USB, Beacon 145.810 USB
Hamsat 24 Jul 07:50:07 07:54:16 50° 285° (WNW) 07:58:25 145.90 MHz
ISS 24 Jul 07:51:07 07:53:20 16° 28° (NNE) 07:55:32 145.800 FM
KITSAT 1 24 Jul 07:53:44 08:01:50 84° 116° (ESE) 08:09:58 435.175 FM
PANSAT 24 Jul 07:54:23 07:57:12 19° 167° (SSE) 08:00:00 not established
AO-7 24 Jul 07:54:28 08:00:06 21° 305° (NW) 08:05:43 29.400 - 29.500 MHz
JAS-2 24 Jul 08:07:58 08:14:04 66° 287° (WNW) 08:19:29 435.800 - 435.900 CW/SSB, 435.910 FM
MaSat-1 24 Jul 08:08:29 08:13:14 32° 59° (ENE) 08:17:47 437.345 MHz
STRAND 1 24 Jul 08:32:51 08:36:40 21° 265° (W) 08:40:29 ?
Saudisat 1A 24 Jul 08:42:41 08:46:23 27° 112° (ESE) 08:50:05 436.775 MHz
SO-67 24 Jul 08:48:00 08:51:26 59° 284° (WNW) 08:54:50 435.3500 MHz FM
ISS 24 Jul 09:27:00 09:30:20 62° 224° (SW) 09:33:38 145.800 FM
PANSAT 24 Jul 09:33:35 09:36:55 28° 179° (S) 09:40:13 not established
UKube-1 24 Jul 09:42:19 09:44:43 14° 94° (E) 09:47:05 145.840 MHz, 145.915 MHz
MaSat-1 24 Jul 09:45:56 09:50:31 30° 256° (WSW) 09:54:52 437.345 MHz
KITSAT 1 24 Jul 09:52:09 09:58:11 22° 316° (NW) 10:04:15 435.175 FM
Saudisat 1A 24 Jul 10:22:05 10:25:52 27° 307° (NW) 10:29:40 436.775 MHz
Sapphire 24 Jul 10:24:44 10:26:33 12° 45° (NE) 10:28:21 437.095 MHz 1200 baud AX-25 AFSK
Oscar 11 24 Jul 10:32:10 10:35:52 27° 97° (E) 10:39:33 145.825 FM, Beacon 2401.500 USB
HO-68 24 Jul 10:33:37 10:40:48 76° 104° (ESE) 10:47:55 435.675 MHz FM
FUNcube-1 24 Jul 10:41:24 10:42:04 10° 92° (E) 10:42:44 145.950 - 145.970 MHz USB
PCSat 24 Jul 10:56:53 11:01:08 23° 52° (NE) 11:05:21 145.825 MHz
PANSAT 24 Jul 11:13:42 11:16:38 21° 192° (SSW) 11:19:34 not established
UKube-1 24 Jul 11:16:58 11:21:04 41° 288° (WNW) 11:25:08 145.840 MHz, 145.915 MHz
Sapphire 24 Jul 12:05:23 12:10:50 80° 63° (ENE) 12:16:14 437.095 MHz 1200 baud AX-25 AFSK
Oscar 11 24 Jul 12:08:33 12:11:53 22° 291° (WNW) 12:15:13 145.825 FM, Beacon 2401.500 USB
FUNcube-1 24 Jul 12:14:42 12:18:44 50° 285° (WNW) 12:22:47 145.950 - 145.970 MHz USB
HO-68 24 Jul 12:23:03 12:27:41 19° 301° (WNW) 12:32:19 435.675 MHz FM
PCSat 24 Jul 12:39:35 12:44:45 46° 249° (WSW) 12:49:53 145.825 MHz
Oscar 19 24 Jul 13:25:54 13:30:07 27° 68° (ENE) 13:34:21 437.125 CW, 437.150 USB
RS-15 24 Jul 13:46:01 13:55:52 37° 107° (ESE) 14:05:27 29.354 - 29.394 USB, Beacon 29.352 USB
Sapphire 24 Jul 13:52:12 13:53:29 11° 258° (WSW) 13:54:46 437.095 MHz 1200 baud AX-25 AFSK
Oscar 16 24 Jul 13:52:30 13:57:26 52° 73° (ENE) 14:02:24 437.025 USB, Beacon 2401.1428
SO-50 24 Jul 13:57:48 14:02:04 49° 115° (ESE) 14:06:25 436.795 FM
ITAMSAT 1 24 Jul 14:03:18 14:07:45 29° 69° (ENE) 14:12:11 435.822 SSB
Gurwin Techsat 1B 24 Jul 14:16:31 14:19:31 15° 64° (ENE) 14:22:32 435.225 FM
AO-27 24 Jul 14:20:34 14:25:29 44° 71° (ENE) 14:30:25 436.795 MHz FM
AO-Echo 24 Jul 14:21:26 14:26:24 45° 72° (ENE) 14:31:27 ?
JAS-1B 24 Jul 14:23:03 14:30:40 38° 63° (ENE) 14:39:11 435.800 - 435.900 CW/SSB
Uribyol 2 24 Jul 14:23:26 14:28:25 48° 72° (ENE) 14:33:25 436.500 FM
UOSAT-12 24 Jul 14:51:09 14:51:28 10° 106° (ESE) 14:51:47 437.025 FM, 437.400 FM
Oscar 19 24 Jul 15:04:50 15:09:19 31° 263° (W) 15:13:49 437.125 CW, 437.150 USB
AO-7 24 Jul 15:07:01 15:11:59 18° 54° (NE) 15:16:57 29.400 - 29.500 MHz
TMSAT-1 24 Jul 15:32:37 15:37:49 60° 74° (ENE) 15:43:03 436.925 FM
Oscar 16 24 Jul 15:34:06 15:37:03 15° 267° (W) 15:40:01 437.025 USB, Beacon 2401.1428
SO-50 24 Jul 15:39:55 15:42:54 17° 312° (NW) 15:45:55 436.795 FM
ITAMSAT 1 24 Jul 15:42:36 15:47:07 30° 263° (W) 15:51:40 435.822 SSB
KITSAT 1 24 Jul 15:51:00 15:57:34 26° 47° (NE) 16:04:04 435.175 FM
Gurwin Techsat 1B 24 Jul 15:53:42 15:58:56 61° 259° (W) 16:04:12 435.225 FM
RS-15 24 Jul 15:56:47 16:07:41 57° 306° (NW) 16:18:24 29.354 - 29.394 USB, Beacon 29.352 USB
AO-27 24 Jul 16:01:27 16:05:09 19° 266° (W) 16:08:51 436.795 MHz FM
AO-Echo 24 Jul 16:01:35 16:05:19 20° 267° (W) 16:09:07 ?
Uribyol 2 24 Jul 16:04:45 16:08:06 17° 266° (W) 16:11:29 436.500 FM
JAS-1B 24 Jul 16:12:46 16:20:43 51° 263° (W) 16:29:56 435.800 - 435.900 CW/SSB
Uosat F 24 Jul 16:14:38 16:19:08 34° 70° (ENE) 16:23:38 435.120 FM
UOSAT-12 24 Jul 16:26:23 16:30:56 71° 301° (WNW) 16:35:37 437.025 FM, 437.400 FM
OPAL 24 Jul 16:51:15 16:55:45 32° 100° (E) 17:00:16 ?
AO-7 24 Jul 16:55:12 17:03:33 85° 72° (ENE) 17:11:58 29.400 - 29.500 MHz
Saudisat 1A 24 Jul 17:13:28 17:15:03 12° 45° (NE) 17:16:38 436.775 MHz
TMSAT-1 24 Jul 17:15:23 17:18:05 14° 268° (W) 17:20:48 436.925 FM
KITSAT 1 24 Jul 17:45:36 17:53:37 71° 246° (WSW) 18:01:35 435.175 FM
Uosat F 24 Jul 17:53:54 17:57:55 24° 264° (W) 18:01:57 435.120 FM
Oscar 10/S400 24 Jul 18:07:34 18:21:01 18° 147° (SSE) 18:32:57 145.825 - 145.975 CW/USB, Beacon 145.810 USB
JAS-2 24 Jul 18:14:17 18:21:34 44° 69° (ENE) 18:28:37 435.800 - 435.900 CW/SSB, 435.910 FM
RS-15 24 Jul 18:16:26 18:23:10 18° 334° (NNW) 18:29:54 29.354 - 29.394 USB, Beacon 29.352 USB
OPAL 24 Jul 18:30:18 18:34:29 27° 294° (WNW) 18:38:41 ?
Hamsat 24 Jul 18:40:20 18:44:30 78° 77° (ENE) 18:48:41 145.90 MHz
Saudisat 1A 24 Jul 18:50:46 18:55:11 79° 242° (WSW) 18:59:33 436.775 MHz
AO-7 24 Jul 18:52:10 18:57:08 17° 268° (W) 19:02:07 29.400 - 29.500 MHz
STRAND 1 24 Jul 19:07:20 19:10:34 17° 93° (E) 19:13:47 ?
SO-67 24 Jul 19:18:42 19:21:35 25° 73° (ENE) 19:24:29 435.3500 MHz FM
JAS-2 24 Jul 19:59:25 20:06:29 37° 264° (W) 20:13:27 435.800 - 435.900 CW/SSB, 435.910 FM
RS-15 24 Jul 20:37:35 20:42:19 13° 13° (NNE) 20:47:05 29.354 - 29.394 USB, Beacon 29.352 USB
STRAND 1 24 Jul 20:45:04 20:49:59 48° 288° (WNW) 20:54:51 ?
SO-67 24 Jul 20:52:46 20:54:39 14° 266° (W) 20:56:33 435.3500 MHz FM
HO-68 24 Jul 20:58:59 21:05:37 43° 67° (ENE) 21:12:16 435.675 MHz FM
Oscar 11 24 Jul 21:25:35 21:28:10 16° 67° (ENE) 21:30:45 145.825 FM, Beacon 2401.500 USB
